| time (UTC) | temp F | wind direction | speed MPH | gust MPH | rain 1hr in | rain 24hr in | rain mn in | humidity % | barometer mb |
| 20260504183035 | 79 | 259 | 1.0 | 11.0 | 0.00 | 0.00 | 0.00 | 53 | 1007.9 |
| 20260504181533 | 79 | 173 | 3.0 | 16.0 | 0.00 | 0.00 | 0.00 | 53 | 1008.2 |
| 20260504180031 | 78 | 224 | 2.0 | 14.0 | 0.00 | 0.00 | 0.00 | 53 | 1008.3 |
| 20260504174528 | 78 | 169 | 1.0 | 10.0 | 0.00 | 0.00 | 0.00 | 51 | 1008.8 |
| 20260504173034 | 77 | 240 | 2.0 | 10.0 | 0.00 | 0.00 | 0.00 | 50 | 1008.8 |
| 20260504171524 | 77 | 175 | 1.0 | 7.0 | 0.00 | 0.00 | 0.00 | 49 | 1009.1 |
| 20260504140103 | 66 | 198 | 0.0 | 7.0 | 0.00 | 0.00 | 0.00 | 71 | 1011.1 |
| 20260504081510 | 65 | 215 | 0.0 | 3.0 | 0.00 | 0.00 | 0.00 | 64 | 1011.2 |
| 20260504044556 | 68 | 107 | 0.0 | 1.0 | 0.00 | 0.00 | 0.00 | 56 | 1013.5 |
| 20260504043044 | 68 | 132 | 0.0 | 1.0 | 0.00 | 0.00 | 0.00 | 56 | 1013.5 |
| 20260504041542 | 69 | 91 | 0.0 | 1.0 | 0.00 | 0.00 | 0.00 | 55 | 1013.5 |
| 20260504040041 | 69 | 266 | 0.0 | 1.0 | 0.00 | 0.00 | 0.00 | 53 | 1013.6 |
| 20260504034550 | 70 | 166 | 0.0 | 1.0 | 0.00 | 0.00 | 0.00 | 51 | 1013.5 |
| 20260504033051 | 70 | 121 | 0.0 | 1.0 | 0.00 | 0.00 | 0.00 | 50 | 1013.5 |
| 20260504031538 | 71 | 109 | 0.0 | 0.0 | 0.00 | 0.00 | 0.00 | 49 | 1013.4 |
| 20260504030038 | 71 | 75 | 0.0 | 1.0 | 0.00 | 0.00 | 0.00 | 48 | 1013.3 |
| 20260504024544 | 72 | 145 | 0.0 | 2.0 | 0.00 | 0.00 | 0.00 | 47 | 1013.2 |
| 20260504023038 | 72 | 268 | 0.0 | 1.0 | 0.00 | 0.00 | 0.00 | 46 | 1013.3 |
| 20260504021538 | 73 | 186 | 0.0 | 2.0 | 0.00 | 0.00 | 0.00 | 45 | 1013.4 |
| 20260504020037 | 73 | 127 | 0.0 | 3.0 | 0.00 | 0.00 | 0.00 | 44 | 1013.1 |
| 20260504014539 | 74 | 148 | 0.0 | 3.0 | 0.00 | 0.00 | 0.00 | 44 | 1013.0 |
| 20260504013039 | 74 | 155 | 0.0 | 2.0 | 0.00 | 0.00 | 0.00 | 43 | 1013.1 |
| 20260504011534 | 75 | 129 | 0.0 | 3.0 | 0.00 | 0.00 | 0.00 | 43 | 1012.9 |
| 20260504010046 | 76 | 136 | 0.0 | 4.0 | 0.00 | 0.00 | 0.00 | 41 | 1012.8 |
| 20260504004534 | 77 | 135 | 0.0 | 4.0 | 0.00 | 0.00 | 0.00 | 39 | 1012.9 |
| 20260504003033 | 78 | 128 | 1.0 | 8.0 | 0.00 | 0.00 | 0.00 | 36 | 1012.8 |
| 20260504001532 | 79 | 128 | 1.0 | 6.0 | 0.00 | 0.00 | 0.00 | 33 | 1012.8 |
| 20260504000031 | 80 | 238 | 1.0 | 8.0 | 0.00 | 0.00 | 0.00 | 33 | 1013.0 |
| 20260503234533 | 81 | 149 | 0.0 | 7.0 | 0.00 | 0.00 | 0.00 | 34 | 1013.0 |
| 20260503233029 | 81 | 261 | 1.0 | 7.0 | 0.00 | 0.00 | 0.00 | 32 | 1013.2 |
| 20260503231527 | 82 | 269 | 0.0 | 9.0 | 0.00 | 0.00 | 0.00 | 32 | 1013.2 |
| 20260503230026 | 83 | 168 | 0.0 | 7.0 | 0.00 | 0.00 | 0.00 | 32 | 1013.3 |
| 20260503224525 | 83 | 195 | 0.0 | 6.0 | 0.00 | 0.00 | 0.00 | 31 | 1013.3 |
| 20260503223025 | 82 | 236 | 0.0 | 7.0 | 0.00 | 0.00 | 0.00 | 32 | 1013.3 |
| 20260503221530 | 83 | 63 | 1.0 | 8.0 | 0.00 | 0.00 | 0.00 | 30 | 1013.7 |
| 20260503220021 | 84 | 248 | 1.0 | 8.0 | 0.00 | 0.00 | 0.00 | 31 | 1013.7 |
| 20260503214518 | 84 | 327 | 0.0 | 10.0 | 0.00 | 0.00 | 0.00 | 32 | 1013.7 |
| 20260503213027 | 84 | 277 | 2.0 | 7.0 | 0.00 | 0.00 | 0.00 | 31 | 1013.9 |
| 20260503211518 | 83 | 184 | 0.0 | 9.0 | 0.00 | 0.00 | 0.00 | 30 | 1014.2 |
| 20260503210012 | 84 | 246 | 2.0 | 8.0 | 0.00 | 0.00 | 0.00 | 31 | 1014.5 |
| 20260503204510 | 83 | 226 | 1.0 | 8.0 | 0.00 | 0.00 | 0.00 | 31 | 1014.8 |
| 20260503203006 | 83 | 245 | 1.0 | 7.0 | 0.00 | 0.00 | 0.00 | 31 | 1015.0 |
| 20260503201507 | 83 | 257 | 3.0 | 9.0 | 0.00 | 0.00 | 0.00 | 30 | 1015.4 |
| 20260503200101 | 83 | 155 | 0.0 | 8.0 | 0.00 | 0.00 | 0.00 | 32 | 1015.7 |
| 20260503194557 | 82 | 232 | 2.0 | 10.0 | 0.00 | 0.00 | 0.00 | 32 | 1015.8 |
| 20260503193102 | 82 | 296 | 0.0 | 5.0 | 0.00 | 0.00 | 0.00 | 32 | 1016.2 |
| 20260503191552 | 82 | 269 | 2.0 | 8.0 | 0.00 | 0.00 | 0.00 | 35 | 1016.4 |
| 20260503190049 | 81 | 261 | 0.0 | 8.0 | 0.00 | 0.00 | 0.00 | 34 | 1016.6 |
| 20260503184549 | 82 | 296 | 1.0 | 7.0 | 0.00 | 0.00 | 0.00 | 37 | 1016.6 |